Marysville, CA

7:48 AM PDT on June 24, 2018 (GMT -0700)
Yuba County

Weather History for KMYV - October, 2017

Change the Weather History Date:

Sunday, October 8, 2017

  Actual Average Record
Temperature  
Mean Temperature 66 °F -  
Max Temperature 81 °F 82 °F 100 °F (1996)
Min Temperature 52 °F 52 °F 44 °F (2006)
Cooling Degree Days 2    
Growing Degree Days 16 (Base 50)    
Moisture  
Dew Point 34 °F    
Average Humidity 36    
Maximum Humidity 74    
Minimum Humidity 14    
Precipitation  
Precipitation 0.00 in - - ()
Sea Level Pressure  
Sea Level Pressure 29.82 in    
Wind  
Wind Speed 9 mph (NNW)    
Max Wind Speed 28 mph    
Max Gust Speed 39 mph    
Visibility 9 miles    
Events      
Averages and records for this station are not official NWS values.
T = Trace of Precipitation, MM = Missing Value Source: NWS Daily Summary

Daily Weather History Graph

Daily Weather History Graph

Search for Another Location

Airport or City:

Astronomy

Oct. 08, 2017 Rise Set
Actual Time 7:09 AM PDT 6:37 PM PDT
Civil Twilight 6:42 AM PDT 7:04 PM PDT
Nautical Twilight 6:11 AM PDT 7:35 PM PDT
Astronomical Twilight 5:40 AM PDT 8:06 PM PDT
Moon 9:04 PM PDT (10/8) 10:16 AM PDT (10/8)
Length of Visible Light 12h 21m
Length of Day
11h 28m
Waning Gibbous, 88% of the Moon is Illuminated
Oct 8
Waning Gibbous
Oct 12
Last Quarter
Oct 19
New
Oct 27
First Quarter
Nov 3
Full

Hourly Weather History & Observations

Time (PDT) Temp. Dew Point Humidity Pressure Visibility Wind Dir Wind Speed Gust Speed Precip Events Conditions
12:53 AM 55.0 °F 43.0 °F 64% 29.78 in 10.0 mi Calm Calm - N/A   Clear
1:53 AM 53.1 °F 41.0 °F 64% 29.79 in 10.0 mi North 3.5 mph - N/A   Clear
2:53 AM 52.0 °F 43.0 °F 71% 29.79 in 10.0 mi NW 3.5 mph - N/A   Clear
3:53 AM 52.0 °F 44.1 °F 74% 29.79 in 10.0 mi Calm Calm - N/A   Clear
4:53 AM 52.0 °F 43.0 °F 71% 29.79 in 10.0 mi Calm Calm - N/A   Clear
5:53 AM 55.9 °F 42.1 °F 60% 29.80 in 10.0 mi North 5.8 mph - N/A   Clear
6:53 AM 53.1 °F 42.1 °F 66% 29.82 in 10.0 mi North 4.6 mph - N/A   Clear
7:20 AM 55.0 °F 42.1 °F 62% 29.81 in 10.0 mi North 8.1 mph - N/A   Partly Cloudy
7:53 AM 61.0 °F 39.9 °F 46% 29.83 in 10.0 mi NNW 13.8 mph - N/A   Clear
8:53 AM 64.0 °F 37.9 °F 38% 29.84 in 7.0 mi NNW 19.6 mph 26.5 mph N/A   Clear
9:53 AM 66.9 °F 37.0 °F 33% 29.86 in 5.0 mi NNW 19.6 mph 26.5 mph N/A   Haze
10:53 AM 71.1 °F 34.0 °F 26% 29.85 in 5.0 mi NNW 19.6 mph 36.8 mph N/A   Haze
11:53 AM 73.9 °F 34.0 °F 23% 29.85 in 7.0 mi NW 20.7 mph 29.9 mph N/A   Clear
12:53 PM 78.1 °F 34.0 °F 20% 29.83 in 10.0 mi NNW 19.6 mph 28.8 mph N/A   Clear
1:53 PM 79.0 °F 33.1 °F 19% 29.80 in 7.0 mi NNW 26.5 mph 36.8 mph N/A   Clear
2:53 PM 80.1 °F 32.0 °F 17% 29.78 in 8.0 mi NNW 27.6 mph 38.0 mph N/A   Clear
3:53 PM 81.0 °F 28.9 °F 15% 29.78 in 8.0 mi NW 24.2 mph 36.8 mph N/A   Clear
4:53 PM 80.1 °F 27.0 °F 14% 29.77 in 6.0 mi NNW 26.5 mph 39.1 mph N/A   Haze
5:53 PM 77.0 °F 26.1 °F 15% 29.78 in 10.0 mi NW 21.9 mph 33.4 mph N/A   Clear
6:53 PM 75.0 °F 24.1 °F 15% 29.79 in 10.0 mi NNW 15.0 mph 26.5 mph N/A   Clear
7:53 PM 72.0 °F 24.1 °F 17% 29.82 in 10.0 mi North 13.8 mph 21.9 mph N/A   Clear
8:53 PM 68.0 °F 25.0 °F 20% 29.85 in 10.0 mi North 11.5 mph - N/A   Clear
9:53 PM 64.9 °F 24.1 °F 21% 29.88 in 10.0 mi NNW 10.4 mph - N/A   Clear
10:53 PM 66.9 °F 21.0 °F 17% 29.90 in 10.0 mi North 9.2 mph - N/A   Clear
11:53 PM 66.0 °F 18.0 °F 16% 29.92 in 10.0 mi North 10.4 mph - N/A   Clear